RYR3349 GCTS-LEMG

Flight info

Callsign RYR3349
Flight time N/A
Altitude 36000
Route KORAL UG5 SONSO DCT NIRAL UN871 ADUBI DCT VJF
Aircraft B738/M-SDE3FGILRWY/SB1

Departure

Time 2026-04-28 08:28
Airport Tenerife Sur Airport (GCTS)

Arrival

Time N/A
Airport Málaga-Costa del Sol Airport (LEMG)
Time Latitude Longitude Altitude Speed Heading
2026-04-28 07:51 28.04792 -16.57455 198 ft 0 kts 342°
2026-04-28 08:20 28.04788 -16.57454 206 ft 2 kts 342°
2026-04-28 08:20 28.04773 -16.57448 186 ft 2 kts 338°
2026-04-28 08:20 28.04757 -16.57440 219 ft 2 kts 332°
2026-04-28 08:21 28.04744 -16.57430 212 ft 2 kts 315°
2026-04-28 08:21 28.04735 -16.57414 206 ft 2 kts 274°
2026-04-28 08:21 28.04736 -16.57399 206 ft 1 kts 251°
2026-04-28 08:21 28.04737 -16.57396 213 ft 0 kts 250°
2026-04-28 08:23 28.04737 -16.57397 206 ft 0 kts 250°
2026-04-28 08:23 28.04735 -16.57403 211 ft 2 kts 250°
2026-04-28 08:23 28.04727 -16.57429 206 ft 5 kts 250°
2026-04-28 08:23 28.04704 -16.57471 209 ft 8 kts 225°
2026-04-28 08:24 28.04651 -16.57479 208 ft 9 kts 163°
2026-04-28 08:24 28.04586 -16.57465 206 ft 10 kts 192°
2026-04-28 08:24 28.04541 -16.57530 207 ft 12 kts 246°
2026-04-28 08:24 28.04507 -16.57624 211 ft 14 kts 249°
2026-04-28 08:25 28.04470 -16.57735 204 ft 16 kts 249°
2026-04-28 08:25 28.04428 -16.57860 207 ft 18 kts 249°
2026-04-28 08:25 28.04381 -16.57997 204 ft 20 kts 249°
2026-04-28 08:26 28.04264 -16.58303 200 ft 23 kts 248°
2026-04-28 08:26 28.04224 -16.58415 206 ft 23 kts 248°
2026-04-28 08:26 28.04150 -16.58653 203 ft 25 kts 248°
2026-04-28 08:26 28.04066 -16.58788 200 ft 20 kts 184°
2026-04-28 08:27 28.03997 -16.58677 199 ft 19 kts 98°
2026-04-28 08:27 28.03998 -16.58578 199 ft 19 kts 80°
2026-04-28 08:27 28.04139 -16.58132 211 ft 90 kts 69°
2026-04-28 08:27 28.04451 -16.57242 212 ft 151 kts 70°
2026-04-28 08:28 28.04713 -16.56449 483 ft 161 kts 70°
2026-04-28 08:28 28.05128 -16.55254 1249 ft 165 kts 68°
2026-04-28 08:28 28.05546 -16.54062 2051 ft 169 kts 67°
2026-04-28 08:28 28.06011 -16.52741 2484 ft 197 kts 67°
2026-04-28 08:29 28.06550 -16.51203 2759 ft 224 kts 67°
2026-04-28 08:29 28.07143 -16.49500 3157 ft 242 kts 67°
2026-04-28 08:29 28.07792 -16.47641 3636 ft 260 kts 67°
2026-04-28 08:29 28.08454 -16.45721 4553 ft 261 kts 69°
2026-04-28 08:30 28.08818 -16.43694 5449 ft 266 kts 83°
2026-04-28 08:30 28.08971 -16.41585 6276 ft 271 kts 84°
2026-04-28 08:30 28.09110 -16.39436 7045 ft 276 kts 84°
2026-04-28 08:30 28.09254 -16.37237 7774 ft 283 kts 84°
2026-04-28 08:31 28.09405 -16.34988 8506 ft 289 kts 84°
2026-04-28 08:31 28.09563 -16.32698 9268 ft 295 kts 84°
2026-04-28 08:31 28.09725 -16.30381 9995 ft 301 kts 84°
2026-04-28 08:31 28.09896 -16.27977 10541 ft 313 kts 84°
2026-04-28 08:32 28.10078 -16.25453 10706 ft 338 kts 84°
2026-04-28 08:32 28.10273 -16.22740 11180 ft 350 kts 84°
2026-04-28 08:32 28.10472 -16.19970 11820 ft 356 kts 84°
2026-04-28 08:32 28.10672 -16.17178 12588 ft 358 kts 84°
2026-04-28 08:33 28.10874 -16.14344 13237 ft 364 kts 84°
2026-04-28 08:33 28.11078 -16.11487 14073 ft 361 kts 84°
2026-04-28 08:33 28.11275 -16.08712 15243 ft 345 kts 84°
2026-04-28 08:33 28.11462 -16.06071 16512 ft 327 kts 84°
2026-04-28 08:34 28.11639 -16.03555 17691 ft 312 kts 84°
2026-04-28 08:34 28.11738 -16.01138 18657 ft 303 kts 90°
2026-04-28 08:34 28.11631 -15.98751 19234 ft 305 kts 93°
2026-04-28 08:34 28.11452 -15.96357 19701 ft 309 kts 94°
2026-04-28 08:35 28.11256 -15.93916 20178 ft 313 kts 94°
2026-04-28 08:35 28.11072 -15.91557 20649 ft 317 kts 94°
2026-04-28 08:35 28.10886 -15.89062 21162 ft 319 kts 94°
2026-04-28 08:35 28.10707 -15.86569 21660 ft 322 kts 94°
2026-04-28 08:36 28.10529 -15.84025 22145 ft 326 kts 94°
2026-04-28 08:36 28.10352 -15.81453 22619 ft 329 kts 94°
2026-04-28 08:36 28.10175 -15.78856 23111 ft 332 kts 94°
2026-04-28 08:36 28.09997 -15.76228 23591 ft 335 kts 94°
2026-04-28 08:37 28.09818 -15.73583 23993 ft 338 kts 94°
2026-04-28 08:37 28.09637 -15.70912 24385 ft 341 kts 94°
2026-04-28 08:37 28.09457 -15.68264 24789 ft 343 kts 94°
2026-04-28 08:37 28.09272 -15.65558 25208 ft 346 kts 94°
2026-04-28 08:38 28.09086 -15.62829 25583 ft 349 kts 94°
2026-04-28 08:38 28.08895 -15.60041 25972 ft 352 kts 94°
2026-04-28 08:38 28.08704 -15.57271 26347 ft 355 kts 94°
2026-04-28 08:38 28.08514 -15.54510 26702 ft 358 kts 94°
2026-04-28 08:39 28.08320 -15.51685 27048 ft 361 kts 94°
2026-04-28 08:39 28.08120 -15.48799 27395 ft 365 kts 94°
2026-04-28 08:39 28.07922 -15.45955 27725 ft 369 kts 93°
2026-04-28 08:39 28.08078 -15.43061 27989 ft 370 kts 72°
2026-04-28 08:40 28.09091 -15.40414 28310 ft 365 kts 53°
2026-04-28 08:40 28.10485 -15.38007 28686 ft 367 kts 51°
2026-04-28 08:40 28.11937 -15.35620 28997 ft 370 kts 51°
2026-04-28 08:40 28.13419 -15.33212 29306 ft 374 kts 51°
2026-04-28 08:41 28.14855 -15.30871 29620 ft 377 kts 51°
2026-04-28 08:41 28.16354 -15.28412 29949 ft 381 kts 51°
2026-04-28 08:41 28.17859 -15.25927 30233 ft 384 kts 51°
2026-04-28 08:41 28.19375 -15.23408 30505 ft 387 kts 51°
2026-04-28 08:42 28.20891 -15.20879 30807 ft 389 kts 51°
2026-04-28 08:42 28.22414 -15.18330 31098 ft 391 kts 51°
2026-04-28 08:42 28.23943 -15.15768 31363 ft 393 kts 51°
2026-04-28 08:42 28.25481 -15.13189 31639 ft 396 kts 51°
2026-04-28 08:43 28.27027 -15.10593 31913 ft 398 kts 51°
2026-04-28 08:43 28.28580 -15.07983 32185 ft 400 kts 51°
2026-04-28 08:43 28.30140 -15.05360 32447 ft 402 kts 51°
2026-04-28 08:43 28.31707 -15.02724 32703 ft 404 kts 51°
2026-04-28 08:44 28.33285 -15.00068 32965 ft 407 kts 51°
2026-04-28 08:44 28.34870 -14.97399 33215 ft 409 kts 51°
2026-04-28 08:44 28.36460 -14.94718 33455 ft 411 kts 51°
2026-04-28 08:44 28.38059 -14.92022 33705 ft 412 kts 51°
2026-04-28 08:45 28.39664 -14.89314 33939 ft 414 kts 51°
2026-04-28 08:45 28.41277 -14.86591 34158 ft 416 kts 52°
2026-04-28 08:45 28.42896 -14.83854 34359 ft 418 kts 52°
2026-04-28 08:45 28.44522 -14.81106 34548 ft 420 kts 52°
2026-04-28 08:46 28.46156 -14.78342 34739 ft 422 kts 52°
2026-04-28 08:46 28.47794 -14.75569 34932 ft 424 kts 52°
2026-04-28 08:46 28.49440 -14.72780 35102 ft 426 kts 52°
2026-04-28 08:46 28.51092 -14.69981 35292 ft 427 kts 52°
2026-04-28 08:47 28.52750 -14.67169 35475 ft 429 kts 52°
2026-04-28 08:47 28.54413 -14.64345 35628 ft 431 kts 52°
2026-04-28 08:47 28.56085 -14.61505 35805 ft 433 kts 52°
2026-04-28 08:47 28.57760 -14.58659 35979 ft 434 kts 52°
2026-04-28 08:48 28.59445 -14.55794 36059 ft 437 kts 52°
2026-04-28 08:48 28.62828 -14.50036 36077 ft 442 kts 52°
2026-04-28 08:49 28.66241 -14.44215 36051 ft 442 kts 52°
2026-04-28 08:49 28.69650 -14.38392 36055 ft 441 kts 52°
2026-04-28 08:50 28.73052 -14.32576 36056 ft 442 kts 52°
2026-04-28 08:50 28.76489 -14.26696 36060 ft 450 kts 52°
2026-04-28 08:51 28.79996 -14.20690 36064 ft 460 kts 52°
2026-04-28 08:51 28.83567 -14.14562 36062 ft 468 kts 52°
2026-04-28 08:52 28.87194 -14.08323 36056 ft 474 kts 52°
2026-04-28 08:52 28.90847 -14.02030 36048 ft 477 kts 52°
2026-04-28 08:53 28.94449 -13.95807 36019 ft 457 kts 52°
2026-04-28 08:53 28.96173 -13.92821 36022 ft 445 kts 52°
2026-04-28 08:53 28.97874 -13.89878 36038 ft 443 kts 52°
2026-04-28 08:54 29.01276 -13.84005 36044 ft 444 kts 52°
2026-04-28 08:54 29.04655 -13.78161 36043 ft 444 kts 52°
2026-04-28 08:55 29.08086 -13.72213 36037 ft 445 kts 52°
2026-04-28 08:55 29.11472 -13.66335 36033 ft 446 kts 52°
2026-04-28 08:56 29.14908 -13.60356 36032 ft 447 kts 52°
2026-04-28 08:56 29.18298 -13.54453 36034 ft 447 kts 52°
2026-04-28 08:57 29.21708 -13.48504 36041 ft 447 kts 52°
2026-04-28 08:57 29.25120 -13.42544 36046 ft 447 kts 52°
2026-04-28 08:58 29.28554 -13.36538 36039 ft 448 kts 52°
2026-04-28 08:58 29.31942 -13.30602 36033 ft 447 kts 52°
2026-04-28 08:59 29.35343 -13.24635 36031 ft 446 kts 52°
2026-04-28 08:59 29.38731 -13.18682 36034 ft 445 kts 52°
2026-04-28 09:00 29.42115 -13.12727 36036 ft 444 kts 52°
2026-04-28 09:00 29.45468 -13.06820 36038 ft 444 kts 52°
2026-04-28 09:01 29.48838 -13.00875 36036 ft 444 kts 52°
2026-04-28 09:01 29.52209 -12.94917 36029 ft 445 kts 52°
2026-04-28 09:02 29.55581 -12.88950 36039 ft 446 kts 53°
2026-04-28 09:02 29.57991 -12.84681 36044 ft 446 kts 53°
2026-04-28 09:03 29.60262 -12.80652 36037 ft 447 kts 53°
2026-04-28 09:03 29.63646 -12.74642 36033 ft 448 kts 53°
2026-04-28 09:04 29.67032 -12.68619 36027 ft 449 kts 53°
2026-04-28 09:04 29.70425 -12.62575 36028 ft 450 kts 53°
2026-04-28 09:05 29.73826 -12.56527 36027 ft 450 kts 52°
2026-04-28 09:05 29.77345 -12.50566 36020 ft 450 kts 51°
2026-04-28 09:06 29.80901 -12.44624 36025 ft 451 kts 51°
2026-04-28 09:06 29.84420 -12.38700 36023 ft 451 kts 51°
2026-04-28 09:07 29.87952 -12.32720 36024 ft 451 kts 52°
2026-04-28 09:07 29.91480 -12.26735 36019 ft 451 kts 52°
2026-04-28 09:08 29.95006 -12.20745 36020 ft 451 kts 52°
2026-04-28 09:08 29.98529 -12.14753 36018 ft 451 kts 52°
2026-04-28 09:09 30.02217 -12.08930 36005 ft 446 kts 41°
2026-04-28 09:09 30.06627 -12.03955 36019 ft 443 kts 38°
2026-04-28 09:10 30.11099 -11.99065 36021 ft 443 kts 38°
2026-04-28 09:10 30.15550 -11.94147 36014 ft 443 kts 39°
2026-04-28 09:11 30.19980 -11.89196 36013 ft 443 kts 39°
2026-04-28 09:11 30.24398 -11.84237 36009 ft 444 kts 39°
2026-04-28 09:12 30.28833 -11.79248 36006 ft 444 kts 39°
2026-04-28 09:12 30.33258 -11.74264 36011 ft 445 kts 39°
2026-04-28 09:13 30.36943 -11.70110 36011 ft 445 kts 39°
2026-04-28 09:13 30.41369 -11.65115 36007 ft 446 kts 39°
2026-04-28 09:14 30.45866 -11.60033 36009 ft 446 kts 39°
2026-04-28 09:14 30.48672 -11.56858 36007 ft 447 kts 39°
2026-04-28 09:15 30.51138 -11.54065 36009 ft 447 kts 39°
2026-04-28 09:15 30.54781 -11.49932 36006 ft 448 kts 39°
2026-04-28 09:16 30.58106 -11.46161 36009 ft 448 kts 39°
2026-04-28 09:16 30.62562 -11.41101 36009 ft 449 kts 39°
2026-04-28 09:17 30.67026 -11.36026 36007 ft 449 kts 39°
2026-04-28 09:17 30.71490 -11.30941 36002 ft 450 kts 39°
2026-04-28 09:18 30.75956 -11.25847 36001 ft 450 kts 40°
2026-04-28 09:18 30.80423 -11.20746 36000 ft 450 kts 40°
2026-04-28 09:19 30.83873 -11.16800 36002 ft 450 kts 40°
2026-04-28 09:19 30.88350 -11.11674 35994 ft 449 kts 40°
2026-04-28 09:20 30.92787 -11.06586 36000 ft 447 kts 40°
2026-04-28 09:20 30.97207 -11.01510 36000 ft 445 kts 40°
2026-04-28 09:21 31.01577 -10.96486 35996 ft 444 kts 40°
2026-04-28 09:21 31.05973 -10.91427 35994 ft 444 kts 40°
2026-04-28 09:22 31.10367 -10.86363 36002 ft 444 kts 40°
2026-04-28 09:22 31.14768 -10.81283 35994 ft 445 kts 40°
2026-04-28 09:23 31.19175 -10.76189 36001 ft 446 kts 40°
2026-04-28 09:23 31.23590 -10.71078 35998 ft 447 kts 40°
2026-04-28 09:24 31.28015 -10.65949 35996 ft 449 kts 40°
2026-04-28 09:24 31.32450 -10.60800 35998 ft 449 kts 41°
2026-04-28 09:25 31.36887 -10.55642 35996 ft 450 kts 41°
2026-04-28 09:25 31.41331 -10.50468 35993 ft 450 kts 41°
2026-04-28 09:26 31.45755 -10.45310 35983 ft 446 kts 41°
2026-04-28 09:26 31.50127 -10.40204 35994 ft 443 kts 41°
2026-04-28 09:27 31.56633 -10.32597 35995 ft 442 kts 41°
2026-04-28 09:27 31.60986 -10.27499 35991 ft 442 kts 41°
2026-04-28 09:28 31.65334 -10.22399 35990 ft 442 kts 41°
2026-04-28 09:28 31.69683 -10.17289 35993 ft 442 kts 42°
2026-04-28 09:29 31.74004 -10.12206 35985 ft 442 kts 42°
2026-04-28 09:29 31.78359 -10.07076 35984 ft 443 kts 42°
2026-04-28 09:30 31.82714 -10.01938 35987 ft 443 kts 42°
2026-04-28 09:30 31.87067 -9.96795 35984 ft 444 kts 42°
2026-04-28 09:31 31.91397 -9.91672 35982 ft 444 kts 42°
2026-04-28 09:31 31.95752 -9.86513 35983 ft 444 kts 42°
2026-04-28 09:32 32.00105 -9.81348 35981 ft 444 kts 43°
2026-04-28 09:32 32.04455 -9.76180 35982 ft 444 kts 43°
2026-04-28 09:33 32.08798 -9.71012 35978 ft 444 kts 43°
2026-04-28 09:33 32.13141 -9.65838 35972 ft 443 kts 43°
2026-04-28 09:34 32.17474 -9.60666 35979 ft 443 kts 43°
2026-04-28 09:34 32.21800 -9.55496 35974 ft 442 kts 43°
2026-04-28 09:35 32.26115 -9.50333 35975 ft 441 kts 43°
2026-04-28 09:35 32.30423 -9.45170 35977 ft 441 kts 43°
2026-04-28 09:36 32.34721 -9.40011 35972 ft 440 kts 43°
2026-04-28 09:36 32.39013 -9.34854 35970 ft 440 kts 43°
2026-04-28 09:37 32.43298 -9.29696 35973 ft 439 kts 43°
2026-04-28 09:37 32.47578 -9.24536 35971 ft 439 kts 43°
2026-04-28 09:38 32.51851 -9.19379 35973 ft 439 kts 43°
2026-04-28 09:38 32.56121 -9.14217 35974 ft 439 kts 43°
2026-04-28 09:39 32.60391 -9.09048 35970 ft 439 kts 44°
2026-04-28 09:39 32.64657 -9.03876 35968 ft 439 kts 44°
2026-04-28 09:40 32.68920 -8.98700 35968 ft 438 kts 44°
2026-04-28 09:40 32.73179 -8.93521 35964 ft 438 kts 44°
2026-04-28 09:41 32.77399 -8.88382 35963 ft 437 kts 44°
2026-04-28 09:41 32.81642 -8.83209 35960 ft 436 kts 44°
2026-04-28 09:42 32.85874 -8.78041 35962 ft 436 kts 44°
2026-04-28 09:42 32.90096 -8.72877 35960 ft 435 kts 45°
2026-04-28 09:43 32.94309 -8.67717 35959 ft 434 kts 45°
2026-04-28 09:43 32.98515 -8.62558 35960 ft 433 kts 45°
2026-04-28 09:44 33.02711 -8.57404 35955 ft 433 kts 45°
2026-04-28 09:44 33.06895 -8.52256 35957 ft 432 kts 45°
2026-04-28 09:45 33.11070 -8.47112 35953 ft 431 kts 45°
2026-04-28 09:45 33.15236 -8.41972 35957 ft 431 kts 45°
2026-04-28 09:46 33.19446 -8.36897 35950 ft 430 kts 40°
2026-04-28 09:46 33.24354 -8.32873 35956 ft 428 kts 31°
2026-04-28 09:47 33.29421 -8.29149 35952 ft 428 kts 31°
2026-04-28 09:47 33.34482 -8.25403 35949 ft 428 kts 31°
2026-04-28 09:48 33.39532 -8.21616 35948 ft 429 kts 31°
2026-04-28 09:48 33.44580 -8.17803 35945 ft 429 kts 31°
2026-04-28 09:49 33.49634 -8.13976 35946 ft 430 kts 32°
2026-04-28 09:49 33.54673 -8.10155 35949 ft 431 kts 32°
2026-04-28 09:50 33.59744 -8.06305 35941 ft 432 kts 32°
2026-04-28 09:50 33.64825 -8.02443 35936 ft 432 kts 32°
2026-04-28 09:51 33.69870 -7.98602 35941 ft 433 kts 32°
2026-04-28 09:51 33.74976 -7.94709 35930 ft 431 kts 32°
2026-04-28 09:52 33.79993 -7.90879 35936 ft 429 kts 32°
2026-04-28 09:52 33.85026 -7.87032 35936 ft 428 kts 32°
2026-04-28 09:53 33.90053 -7.83183 35934 ft 427 kts 32°
2026-04-28 09:53 33.95070 -7.79337 35931 ft 427 kts 32°
2026-04-28 09:54 34.00076 -7.75493 35934 ft 427 kts 32°
2026-04-28 09:54 34.05087 -7.71641 35936 ft 427 kts 32°
2026-04-28 09:55 34.10098 -7.67783 35935 ft 428 kts 32°
2026-04-28 09:55 34.15117 -7.63913 35931 ft 428 kts 32°
2026-04-28 09:56 34.20145 -7.60030 35928 ft 429 kts 32°
2026-04-28 09:56 34.25180 -7.56137 35930 ft 430 kts 32°
2026-04-28 09:57 34.30220 -7.52234 35929 ft 431 kts 32°
2026-04-28 09:57 34.35271 -7.48318 35926 ft 431 kts 32°
2026-04-28 09:58 34.40325 -7.44393 35924 ft 432 kts 32°
2026-04-28 09:58 34.45384 -7.40458 35922 ft 432 kts 32°
2026-04-28 09:59 34.50447 -7.36514 35922 ft 433 kts 32°
2026-04-28 09:59 34.54653 -7.33234 35923 ft 433 kts 33°